Flag for Russia Weather past 2 weeks in Surgut, Russia

Now
50 °F

Sprinkles. Fog.


Feels Like: 48 °F
Forecast: 46 / 55 °F
Wind: 6 mph from East

Location: Surgut Airport

Current Time: Aug 30, 2015 at 12:00:34 AM

Latest Report: Aug 29, 2015 at 11:00 PM


Visibility: 3 mi

Pressure: 29.59 "Hg

Humidity: 94%

Dew point: 48 °F

Location of SurgutLocation

Historic Weather in Surgut — Graph

°F

Surgut temperature yesterday

Maximum temperature yesterday: 54 °F (at 1:30 PM)
Minimum temperature yesterday: 46 °F (at 4:00 AM)
Average temperature yesterday: 50 °F

Past Weeks' High & Low Weather Summary

 TemperatureHumidityPressure
High68 °F (Aug 16, 12:00 PM)100% (Aug 16, 3:30 AM)30.09 "Hg (Aug 16, 3:30 AM)
Low34 °F (Aug 26, 2:00 AM)42% (Aug 28, 3:30 PM)29.45 "Hg (Aug 24, 2:00 AM)
Average51 °F81%29.74 "Hg
* Reported Aug 14 11:00 PM — Aug 29 11:00 PM, Surgut, Weather by CustomWeather, © 2015

Note: Actual official high and low records may vary slightly from our data, if they occured in-between our weather recording intervals... More about our weather records

Advertising

Surgut weather history for previous 24 hours

 ConditionsComfort  
Time TempWeatherWind HumidityBarometerVisibility
11:00 PM
Sat, Aug 29
50 °FSprinkles. Fog.6 mph94%29.59 "Hg3 mi
10:30 PM50 °FPartly cloudy.6 mph94%29.59 "Hg4 mi
10:00 PM50 °FSprinkles. Fog.6 mph100%29.59 "Hg3 mi
9:30 PM50 °FSprinkles. Fog.6 mph100%29.59 "Hg2 mi
9:00 PM50 °FSprinkles. Partly cloudy.6 mph100%29.62 "Hg4 mi
8:30 PM50 °FSprinkles. Partly cloudy.8 mph100%29.62 "Hg4 mi
8:00 PM52 °FSprinkles. Broken clouds.1 mph94%29.62 "Hg4 mi
7:30 PM52 °FSprinkles. Broken clouds.No wind94%29.62 "Hg4 mi
7:00 PM52 °FSprinkles. Broken clouds.1 mph94%29.62 "Hg4 mi
6:30 PM52 °FBroken clouds.3 mph94%29.62 "Hg4 mi
6:00 PM52 °FBroken clouds.3 mph94%29.65 "Hg4 mi
5:30 PM52 °FSprinkles. Broken clouds.3 mph94%29.65 "Hg4 mi
5:00 PM52 °FSprinkles. Broken clouds.6 mph94%29.65 "Hg4 mi
4:30 PM52 °FSprinkles. Broken clouds.8 mph94%29.65 "Hg2 mi
4:00 PM52 °FSprinkles. Broken clouds.3 mph94%29.65 "Hg4 mi
3:00 PM54 °FBroken clouds.3 mph88%29.65 "Hg4 mi
2:30 PM54 °FBroken clouds.3 mph94%29.68 "Hg4 mi
2:00 PM54 °FSprinkles. Broken clouds.3 mph94%29.68 "Hg4 mi
1:30 PM54 °FBroken clouds.6 mph88%29.68 "Hg4 mi
12:30 PM52 °FBroken clouds.6 mph94%29.68 "Hg4 mi
12:00 PM52 °FBroken clouds.8 mph88%29.71 "Hg4 mi
11:00 AM50 °FBroken clouds.10 mph94%29.71 "Hg4 mi
10:30 AM50 °FSprinkles. Broken clouds.8 mph88%29.71 "Hg4 mi
10:00 AM48 °FBroken clouds.8 mph94%29.74 "Hg4 mi
9:30 AM50 °FBroken clouds.8 mph88%29.74 "Hg4 mi
9:00 AM50 °FBroken clouds.6 mph88%29.74 "Hg4 mi
8:30 AM48 °FBroken clouds.6 mph94%29.74 "Hg4 mi
8:00 AM48 °FBroken clouds.3 mph94%29.74 "Hg4 mi
7:30 AM48 °FBroken clouds.6 mph94%29.77 "Hg4 mi
7:00 AM46 °FBroken clouds.8 mph100%29.77 "Hg4 mi
6:30 AM46 °FBroken clouds.3 mph100%29.77 "Hg4 mi
6:00 AM46 °FSprinkles. Fog.10 mph100%29.77 "Hg2 mi
5:30 AM46 °FSprinkles. Partly cloudy.6 mph100%29.80 "Hg4 mi
5:00 AM48 °FSprinkles. Fog.6 mph94%29.80 "Hg3 mi
4:30 AM46 °FPartly cloudy.6 mph100%29.80 "Hg4 mi
4:00 AM46 °FSprinkles. Partly cloudy.6 mph100%29.80 "Hg4 mi
3:30 AM48 °FPartly cloudy.6 mph94%29.80 "Hg4 mi
3:00 AM48 °FSprinkles. Passing clouds.3 mph94%29.83 "Hg4 mi
2:30 AM48 °FSprinkles. Partly cloudy.1 mph94%29.83 "Hg4 mi
2:00 AM48 °FSprinkles. Partly cloudy.3 mph94%29.83 "Hg4 mi
1:30 AM48 °FSprinkles. Passing clouds.3 mph94%29.83 "Hg4 mi
1:00 AM48 °FClear.3 mph94%29.83 "Hg4 mi
12:30 AM48 °FClear.3 mph87%29.83 "Hg4 mi
12:00 AM50 °FClear.3 mph82%29.86 "Hg4 mi
Weather by CustomWeather, © 2015

See weather overviewHow to use our weather pages